sat.trackr.live / text

‹ back to catalog

STARLINK-36186

NORAD 67165 · 2025-303C

PAYLOAD ACTIVE UNKNOWN

§ Identity

Operator
Country
US
Launch date
2025-12-17
Launch site
AFETR
Launch vehicle
Mass (kg)
RCS (m²)

Purposes: comms

External: N2YO · Heavens-Above · Gunter

§ Orbital elements

Epoch: 2026-05-24T23:04:24.633408Z

Period
94.27 min
Inclination
43.0020°
Eccentricity
0.0001151
Mean motion
15.27583769 rev/d
Perigee alt
482.2 km
Apogee alt
483.8 km
Semi-major
6,861.2 km
B*
9.1732e-4
RAAN
239.6525°
Arg perigee
279.4448°
Mean anomaly
80.6274°
Rev number
2,440

§ Raw data

STARLINK-361861 67165U 25303C   26144.96139622  .00025069  00000+0  91732-3 0  99992 67165  43.0020 239.6525 0001151 279.4448  80.6274 15.27583769 24404

JSON: /api/v1/satellites/67165 · /tle

For live sub-satellite position, see the globe view (requires WebGL).

§ Visibility from observer

Set your observer location to see the next 7 days of passes ≥ 10°. The values pass through the URL so the page stays shareable.

No JS? Fill the form by hand. The geolocation button needs JavaScript.